Location: Sperry Observatory
(40.6664°N, 74.3236°W)
Time: 03:31:17
(UTC-04:00)

UOSAT-12 - Visible Passes

Search period start: 01 September 2014 00:00
Search period end: 11 September 2014 00:00
Orbit: 594 x 664 km, 64.6° (Epoch: 31 August)

Date Brightness Start Highest point End Pass type
(mag) Time Alt. Az. Time Alt. Az. Time Alt. Az.
01 Sep 8.8 04:49:25 10° S 04:53:27 31° ESE 04:57:34 10° NE visible
02 Sep 7.4 05:09:48 13° SSW 05:13:49 70° ESE 05:18:30 10° NE visible
03 Sep 9.4 03:53:05 15° SE 03:54:41 17° ESE 03:57:43 10° ENE visible
03 Sep 7.4 05:30:28 14° SW 05:34:23 54° NW 05:39:01 10° NNE visible
04 Sep 8.3 04:13:39 32° SSE 04:14:55 38° ESE 04:19:16 10° NE visible
04 Sep 8.4 05:51:12 10° WSW 05:55:10 27° NW 05:59:12 10° NNE visible
05 Sep 7.1 04:34:09 50° SSW 04:35:20 86° ESE 04:40:04 10° NNE visible
06 Sep 9.4 03:17:12 20° E 03:17:12 20° E 03:19:39 10° ENE visible
06 Sep 7.7 04:54:33 34° W 04:55:57 44° NW 05:00:29 10° NNE visible
07 Sep 8.4 03:37:33 39° ENE 03:37:33 39° ENE 03:40:55 10° NE visible
07 Sep 8.6 05:14:54 18° WNW 05:16:47 23° NW 05:20:34 10° N visible
08 Sep 7.7 03:57:50 55° NNE 03:57:50 55° NNE 04:01:36 10° NNE visible
08 Sep 9.3 05:35:35 10° WNW 05:37:50 13° NW 05:40:06 10° N visible
09 Sep 10.0 02:40:43 14° ENE 02:40:43 14° ENE 02:41:27 10° NE visible
09 Sep 8.1 04:18:04 36° NW 04:18:04 36° NW 04:21:55 10° NNE visible
10 Sep 9.5 03:00:55 21° NE 03:00:55 21° NE 03:02:31 10° NE visible
10 Sep 8.9 04:38:15 20° NW 04:38:25 20° NW 04:41:54 10° N visible
